IZ3TCG-13 Weather Reports


time (UTC)temp
C
wind
direction
speed
KPH
gust
KPH
rain 1hr
cm
rain 24hr
cm
rain mn
cm
humidity
%
barometer
mb
20260506195604 16 11 0.0 3.2 0.00 1.12 1.12 97 1012.6
20260506195203 16 15 1.6 3.2 0.00 1.12 1.12 97 1012.3
20260506195021 16 21 0.0 3.2 0.00 1.12 1.12 97 1012.6
20260506194403 16 23 0.0 6.4 0.00 1.12 1.12 96 1012.3
20260506194215 16 22 1.6 6.4 0.00 1.12 1.12 96 1012.4
20260506193814 16 15 1.6 6.4 0.00 1.12 1.12 96 1012.3
20260506193203 16 351 0.0 3.2 0.00 1.12 1.12 96 1012.1
20260506192803 16 338 0.0 3.2 0.00 1.12 1.12 95 1012.2
20260506192404 16 343 1.6 3.2 0.00 1.12 1.12 95 1012.2
20260506192003 16 349 1.6 3.2 0.00 1.12 1.12 95 1012.2
20260506191603 16 343 1.6 3.2 0.00 1.12 1.12 95 1012.0
20260506191204 16 357 0.0 3.2 0.00 1.12 1.12 95 1012.1
20260506191015 16 344 0.0 3.2 0.00 1.12 1.12 95 1011.9
20260506190403 16 338 1.6 3.2 0.00 1.12 1.12 95 1012.0
20260506190009 17 344 1.6 3.2 0.00 1.12 1.12 95 1012.0
20260506185603 17 342 0.0 3.2 0.00 1.12 1.12 94 1011.9
20260506185203 17 356 0.0 6.4 0.00 1.12 1.12 94 1011.9
20260506184804 17 5 0.0 6.4 0.00 1.12 1.12 94 1011.8
20260506184404 17 12 3.2 6.4 0.00 1.12 1.12 94 1011.7
20260506184004 17 7 0.0 6.4 0.00 1.12 1.12 94 1011.7
20260506183603 17 14 1.6 6.4 0.00 1.12 1.12 93 1011.8
20260506183203 17 20 3.2 6.4 0.00 1.12 1.12 93 1011.6
20260506183014 17 18 3.2 6.4 0.00 1.12 1.12 93 1011.7
20260506182403 17 346 3.2 6.4 0.00 1.12 1.12 93 1011.5
20260506182218 17 326 4.8 6.4 0.00 1.12 1.12 93 1011.5
20260506181817 17 307 0.0 6.4 0.00 1.12 1.12 94 1011.7
20260506181203 17 309 0.0 6.4 0.00 1.12 1.12 94 1011.4
20260506180803 17 342 1.6 6.4 0.00 1.12 1.12 94 1011.6
20260506180404 17 24 3.2 6.4 0.00 1.12 1.12 94 1011.3
20260506180005 17 49 3.2 6.4 0.00 1.12 1.12 93 1011.1
20260506175814 17 53 1.6 3.2 0.00 1.12 1.12 93 1011.2
20260506175418 17 90 0.0 3.2 0.00 1.12 1.12 93 1011.1
20260506174804 17 92 0.0 6.4 0.00 1.12 1.12 92 1011.4
20260506174404 17 89 0.0 9.7 0.00 1.12 1.12 92 1011.2
20260506174003 17 78 3.2 9.7 0.00 1.12 1.12 92 1011.3
20260506173603 17 55 3.2 6.4 0.00 1.12 1.12 91 1011.3
20260506173203 17 29 1.6 3.2 0.00 1.12 1.12 91 1011.3
20260506172804 17 44 0.0 3.2 0.00 1.12 1.12 91 1011.3
20260506172403 17 61 3.2 3.2 0.00 1.12 1.12 91 1011.4
20260506172003 17 35 1.6 6.4 0.00 1.12 1.12 91 1011.6
20260506171603 17 18 0.0 6.4 0.00 1.12 1.12 91 1011.3
20260506171203 17 18 0.0 6.4 0.00 1.12 1.12 91 1011.2
20260506170804 17 58 0.0 3.2 0.00 1.12 1.12 91 1011.2
20260506170404 17 51 0.0 3.2 0.00 1.12 1.12 91 1011.1
20260506170215 17 52 1.6 3.2 0.00 1.12 1.12 91 1011.1
20260506165604 17 1 1.6 3.2 0.00 1.12 1.12 90 1011.0
20260506165204 17 348 0.0 3.2 0.00 1.12 1.12 90 1011.1
20260506164804 17 346 0.0 3.2 0.00 1.12 1.12 90 1011.1
20260506164618 17 354 3.2 3.2 0.00 1.12 1.12 90 1011.0
20260506164003 18 33 1.6 3.2 0.00 1.12 1.12 90 1011.2
20260506163603 17 87 1.6 3.2 0.00 1.12 1.12 90 1011.3
20260506163203 17 89 0.0 6.4 0.00 1.12 1.12 90 1011.2
20260506162803 17 87 0.0 6.4 0.00 1.12 1.12 90 1011.2
20260506162404 17 83 3.2 9.7 0.00 1.12 1.12 90 1011.1
20260506162214 17 82 3.2 9.7 0.00 1.12 1.12 90 1011.1
20260506161604 17 85 4.8 9.7 0.00 1.12 1.12 89 1011.3
20260506161203 17 89 3.2 9.7 0.00 1.12 1.12 88 1011.4
20260506161017 17 90 3.2 9.7 0.00 1.12 1.12 88 1011.5
20260506160403 18 88 3.2 6.4 0.00 1.12 1.12 88 1011.6
20260506160004 18 81 3.2 6.4 0.00 1.12 1.12 87 1011.2
20260506155604 18 80 1.6 6.4 0.00 1.12 1.12 87 1011.3
20260506155203 18 93 1.6 6.4 0.00 1.12 1.12 87 1011.6
20260506154804 19 88 0.0 6.4 0.00 1.12 1.12 86 1011.5
20260506154404 19 87 3.2 9.7 0.00 1.12 1.12 87 1011.4
20260506154217 18 89 0.0 9.7 0.00 1.12 1.12 89 1011.2
20260506153603 18 98 3.2 9.7 0.00 1.12 1.12 90 1011.4
20260506153204 18 97 1.6 9.7 0.00 1.12 1.12 90 1011.2
20260506152804 18 91 3.2 9.7 0.00 1.12 1.12 91 1011.2
20260506152403 17 91 3.2 9.7 0.00 1.12 1.12 92 1011.2
20260506152004 17 83 3.2 6.4 0.00 1.12 1.12 92 1011.1
20260506151603 17 82 3.2 9.7 0.00 1.12 1.12 92 1011.4
20260506151204 17 86 3.2 9.7 0.00 1.12 1.12 92 1011.3
20260506150803 17 82 3.2 9.7 0.00 1.12 1.12 91 1011.2
20260506150403 17 75 3.2 9.7 0.00 1.12 1.12 90 1011.4
20260506150004 17 81 1.6 9.7 0.00 1.12 1.12 90 1011.4
20260506145603 17 86 3.2 9.7 0.00 1.12 1.12 88 1011.4
20260506145204 17 86 1.6 9.7 0.00 1.12 1.12 89 1011.4
20260506144804 17 76 6.4 9.7 0.00 1.12 1.12 87 1011.5
20260506144404 17 58 0.0 6.4 0.00 1.12 1.12 88 1011.4
20260506144003 17 56 3.2 9.7 0.00 1.12 1.12 88 1011.4
20260506143817 17 45 0.0 9.7 0.00 1.12 1.12 89 1011.6
20260506143203 17 23 1.6 9.7 0.00 1.12 1.12 92 1011.6
20260506142803 17 55 0.0 11.3 0.00 1.12 1.12 93 1011.5
20260506142404 16 72 4.8 12.9 0.00 1.12 1.12 92 1011.4
20260506142003 16 69 3.2 12.9 0.00 1.12 1.12 93 1011.3
20260506141603 17 60 3.2 11.3 0.00 1.12 1.12 94 1011.3
20260506141203 17 53 3.2 11.3 0.00 1.12 1.12 97 1011.5
20260506140803 17 59 3.2 9.7 0.03 1.12 1.12 97 1011.5
20260506140403 17 72 3.2 9.7 0.10 1.12 1.12 98 1011.7
20260506140003 17 77 4.8 6.4 0.15 1.12 1.12 98 1011.3
20260506135603 16 61 3.2 6.4 0.30 1.12 1.12 98 1011.5
20260506135203 16 46 1.6 6.4 0.46 1.12 1.12 99 1011.5
20260506134804 17 50 3.2 6.4 0.56 1.12 1.12 99 1011.5
20260506134404 17 38 1.6 11.3 0.61 1.12 1.12 99 1011.3
20260506134004 16 39 3.2 11.3 0.61 1.12 1.12 99 1011.4
20260506133813 16 36 3.2 11.3 0.61 1.12 1.12 99 1011.7
20260506133203 17 24 0.0 6.4 0.64 1.12 1.12 99 1011.8
20260506132803 16 28 3.2 6.4 0.64 1.12 1.12 99 1011.7
20260506132403 16 38 3.2 6.4 0.64 1.12 1.12 99 1011.9
20260506132003 16 45 3.2 6.4 0.64 1.12 1.12 99 1012.0
20260506131603 16 44 3.2 6.4 0.64 1.12 1.12 99 1011.9
20260506131203 16 50 3.2 6.4 0.64 1.12 1.12 99 1011.9
20260506130803 16 71 1.6 3.2 0.61 1.09 1.09 98 1012.0
20260506130403 16 216 0.0 3.2 0.53 1.02 1.02 98 1012.1
20260506130005 16 259 0.0 3.2 0.48 0.97 0.97 98 1012.1
20260506125603 16 254 0.0 3.2 0.33 0.81 0.81 97 1012.2
20260506125203 17 70 0.0 3.2 0.18 0.66 0.66 96 1012.3
20260506124803 17 84 0.0 3.2 0.05 0.53 0.53 96 1012.1
20260506124403 17 88 1.6 3.2 0.03 0.51 0.51 95 1012.2
20260506124214 17 85 0.0 3.2 0.03 0.51 0.51 95 1012.1
20260506123603 17 68 1.6 6.4 0.00 0.48 0.48 94 1012.1
20260506123204 17 59 1.6 9.7 0.00 0.48 0.48 93 1011.8
20260506122803 17 44 1.6 9.7 0.00 0.48 0.48 93 1012.2
20260506122403 17 51 0.0 9.7 0.00 0.48 0.48 93 1011.9
20260506122003 17 57 3.2 6.4 0.00 0.48 0.48 94 1011.8
20260506121604 17 58 3.2 6.4 0.00 0.48 0.48 94 1012.0
20260506121415 17 62 3.2 6.4 0.00 0.48 0.48 94 1012.0
20260506120804 17 63 3.2 6.4 0.00 0.48 0.48 93 1012.2
20260506120403 17 74 1.6 11.3 0.00 0.48 0.48 93 1012.2
20260506120213 17 77 1.6 11.3 0.00 0.48 0.48 93 1012.2
20260506115603 17 91 1.6 11.3 0.00 0.48 0.48 92 1012.2
20260506115204 17 95 3.2 9.7 0.00 0.48 0.48 91 1012.3
20260506114803 17 92 4.8 9.7 0.00 0.48 0.48 91 1012.2
20260506114404 17 97 4.8 11.3 0.00 0.48 0.48 90 1012.4
20260506114003 17 98 1.6 11.3 0.00 0.48 0.48 90 1012.3
20260506113603 17 95 4.8 11.3 0.00 0.48 0.48 89 1012.3
20260506113204 17 92 3.2 11.3 0.00 0.48 0.48 89 1012.6
20260506112803 18 83 3.2 9.7 0.00 0.48 0.48 88 1012.5
20260506112403 17 83 3.2 11.3 0.00 0.48 0.48 89 1012.6
20260506112217 18 75 6.4 11.3 0.00 0.48 0.48 88 1012.6
20260506111816 17 69 1.6 11.3 0.00 0.48 0.48 89 1012.8
20260506111204 18 74 3.2 6.4 0.00 0.48 0.48 88 1012.5
20260506110803 18 77 1.6 9.7 0.00 0.48 0.48 89 1012.7
20260506110403 17 79 1.6 9.7 0.00 0.48 0.48 90 1012.6
20260506110004 17 78 4.8 9.7 0.00 0.48 0.48 90 1012.9
20260506105603 17 81 4.8 9.7 0.00 0.48 0.48 92 1012.7
20260506105204 16 86 3.2 6.4 0.00 0.48 0.48 93 1012.9
20260506104804 16 80 3.2 9.7 0.00 0.48 0.48 95 1013.0
20260506104616 16 81 3.2 9.7 0.00 0.48 0.48 95 1012.8
20260506104004 16 83 1.6 11.3 0.00 0.48 0.48 95 1013.0
20260506103603 16 79 1.6 11.3 0.00 0.51 0.48 94 1013.0
20260506103204 16 73 6.4 11.3 0.03 0.51 0.48 93 1012.8
20260506102803 16 57 1.6 6.4 0.03 0.51 0.48 93 1012.7
20260506102404 16 59 3.2 6.4 0.03 0.51 0.48 93 1013.0
20260506102004 16 70 1.6 6.4 0.05 0.51 0.48 95 1013.0
20260506101604 16 81 3.2 6.4 0.05 0.51 0.48 95 1013.1
20260506101203 16 91 0.0 6.4 0.10 0.51 0.48 96 1013.3
20260506100803 16 94 3.2 6.4 0.13 0.51 0.48 95 1013.2
20260506100404 16 92 0.0 6.4 0.13 0.51 0.48 97 1013.2
20260506095815 16 81 1.6 6.4 0.13 0.51 0.48 97 1009.5
20260506095203 16 86 3.2 6.4 0.13 0.51 0.48 97 1009.4
20260506094804 16 90 0.0 6.4 0.13 0.51 0.48 98 1009.4
20260506094403 16 99 3.2 6.4 0.13 0.51 0.48 98 1009.5
20260506094004 16 94 0.0 6.4 0.13 0.51 0.48 98 1009.6
20260506093603 16 94 3.2 6.4 0.13 0.51 0.48 97 1009.5
20260506093203 16 87 4.8 6.4 0.10 0.48 0.46 96 1009.6
20260506092803 16 91 1.6 6.4 0.10 0.48 0.46 96 1009.4
20260506092404 16 95 4.8 6.4 0.10 0.48 0.46 95 1009.7
20260506092004 16 95 4.8 6.4 0.05 0.46 0.43 95 1009.6
20260506091603 16 92 3.2 6.4 0.05 0.46 0.43 94 1009.7
20260506091203 16 85 3.2 6.4 0.03 0.43 0.38 93 1009.5
20260506090804 16 81 0.0 6.4 0.00 0.43 0.36 93 1009.7
20260506090403 16 79 3.2 6.4 0.00 0.43 0.36 91 1009.6
20260506090004 17 69 1.6 3.2 0.00 0.46 0.36 91 1009.4
20260506085604 17 55 0.0 3.2 0.00 0.46 0.36 90 1009.2
20260506085203 17 59 0.0 3.2 0.00 0.48 0.36 89 1009.3
20260506084803 17 86 0.0 3.2 0.00 0.48 0.36 90 1009.2
20260506084404 17 98 0.0 3.2 0.00 0.51 0.36 89 1009.1
20260506084003 17 90 0.0 3.2 0.00 0.51 0.36 88 1009.1
20260506083603 17 90 0.0 3.2 0.00 0.51 0.36 90 1009.1
20260506083203 17 90 0.0 3.2 0.00 0.51 0.36 92 1009.1
20260506082803 16 90 0.0 3.2 0.00 0.51 0.36 90 1009.2
20260506082403 16 90 0.0 3.2 0.00 0.51 0.36 92 1009.3
20260506082003 16 90 1.6 3.2 0.00 0.51 0.36 93 1009.0
20260506081814 16 90 0.0 3.2 0.00 0.51 0.36 93 1009.1
20260506081413 16 0 0.0 0.0 0.00 0.51 0.36 92 1009.1
20260506080804 16 0 0.0 0.0 0.00 0.51 0.36 95 1009.1
20260506080403 16 90 0.0 3.2 0.00 0.51 0.36 98 1009.2
20260506073205 15 90 0.0 3.2 0.03 0.51 0.36 99 1009.5
20260506072803 15 90 0.0 3.2 0.03 0.51 0.36 99 1009.5
20260506072403 15 90 0.0 3.2 0.03 0.51 0.36 99 1009.4
20260506072003 15 90 1.6 3.2 0.03 0.51 0.36 99 1009.2
20260506071604 15 0 0.0 0.0 0.03 0.51 0.36 99 1009.3
20260506071204 15 0 0.0 0.0 0.03 0.51 0.36 99 1009.4
20260506070803 15 0 0.0 0.0 0.03 0.51 0.36 99 1009.3
20260506070404 15 0 0.0 0.0 0.03 0.51 0.36 99 1009.4
20260506062216 14 22 0.0 3.2 0.00 0.48 0.33 99 1009.2
20260506061603 14 0 0.0 0.0 0.00 0.48 0.33 99 1009.2
20260506061203 14 0 0.0 0.0 0.00 0.48 0.33 99 1009.2
20260506060803 14 90 0.0 3.2 0.00 0.48 0.33 99 1009.1
20260506060403 14 90 0.0 3.2 0.00 0.48 0.33 99 1009.3
20260506060218 13 90 0.0 3.2 0.00 0.48 0.33 99 1009.4
20260506051203 13 97 0.0 3.2 0.00 0.48 0.33 99 1009.5
20260506050803 13 110 1.6 3.2 0.00 0.48 0.33 99 1009.7
20260506050403 13 0 0.0 0.0 0.00 0.48 0.33 99 1009.7
20260506044803 13 0 0.0 0.0 0.00 0.48 0.33 99 1009.7
20260506044404 13 0 0.0 0.0 0.00 0.48 0.33 99 1009.5
20260506044004 13 0 0.0 0.0 0.03 0.48 0.33 99 1009.7
20260506043603 13 266 0.0 3.2 0.15 0.48 0.33 99 1009.6
20260506043204 13 267 0.0 3.2 0.18 0.48 0.33 99 1009.4
20260506042804 13 293 0.0 6.4 0.30 0.48 0.33 99 1009.2
20260506042403 13 324 0.0 6.4 0.33 0.48 0.33 99 1009.2
20260506042217 13 331 0.0 6.4 0.33 0.48 0.33 99 1009.1
20260506041603 13 350 3.2 6.4 0.33 0.48 0.33 99 1008.9
20260506041203 13 330 0.0 3.2 0.33 0.48 0.33 99 1009.1
20260506040803 13 285 0.0 6.4 0.33 0.48 0.33 99 1009.0
20260506040404 13 291 0.0 6.4 0.33 0.48 0.33 99 1009.3
20260506040003 13 332 1.6 6.4 0.33 0.48 0.33 99 1009.2
20260506035605 13 13 1.6 6.4 0.33 0.48 0.33 99 1009.3
20260506035203 13 10 3.2 6.4 0.33 0.48 0.33 99 1009.3
20260506034804 13 358 3.2 6.4 0.33 0.48 0.33 99 1009.2
20260506034403 13 354 1.6 3.2 0.33 0.48 0.33 99 1008.9
20260506034216 13 355 1.6 3.2 0.30 0.46 0.30 99 1009.3
20260506033604 13 40 0.0 3.2 0.18 0.33 0.18 99 1009.6
20260506033204 13 59 0.0 3.2 0.15 0.30 0.15 99 1009.3
20260506032804 13 119 0.0 3.2 0.03 0.18 0.03 99 1009.4
20260506032403 13 164 0.0 3.2 0.00 0.15 0.00 98 1009.6
20260506032003 13 253 0.0 3.2 0.00 0.15 0.00 98 1010.0
20260506031817 13 270 0.0 3.2 0.00 0.15 0.00 98 1009.9
20260506031204 13 270 1.6 3.2 0.00 0.15 0.00 98 1009.7
20260506031016 13 270 0.0 3.2 0.00 0.15 0.00 98 1009.7
20260506030404 13 0 0.0 0.0 0.00 0.15 0.00 98 1009.7
20260506030004 13 270 0.0 3.2 0.00 0.15 0.00 98 1009.8
20260506025603 13 270 0.0 3.2 0.00 0.15 0.00 98 1009.8
20260506025203 13 270 0.0 3.2 0.00 0.15 0.00 98 1009.7
20260506024803 13 270 0.0 3.2 0.00 0.15 0.00 98 1009.8
20260506024404 13 270 0.0 3.2 0.00 0.15 0.00 98 1009.8
20260506024005 13 283 0.0 3.2 0.00 0.15 0.00 98 1010.0
20260506023816 13 282 0.0 3.2 0.00 0.15 0.00 98 1009.9
20260506023204 13 278 0.0 3.2 0.00 0.15 0.00 98 1009.9
20260506022805 13 270 1.6 3.2 0.00 0.15 0.00 98 1010.1
20260506022404 13 261 0.0 3.2 0.00 0.15 0.00 98 1010.0
20260506022003 13 267 0.0 3.2 0.00 0.15 0.00 98 1010.0
20260506021603 13 271 0.0 3.2 0.00 0.15 0.00 98 1010.1
20260506021203 13 322 0.0 3.2 0.00 0.15 0.00 98 1009.8
20260506020804 13 344 0.0 3.2 0.00 0.15 0.00 98 1010.1
20260506020403 13 346 1.6 3.2 0.00 0.15 0.00 98 1010.1
20260506020004 13 299 0.0 3.2 0.00 0.15 0.00 97 1010.2
20260506015604 13 299 0.0 3.2 0.00 0.15 0.00 97 1010.2
20260506015203 13 290 0.0 3.2 0.00 0.15 0.00 97 1010.0
20260506014803 13 301 0.0 3.2 0.00 0.15 0.00 97 1010.2
20260506014403 13 304 0.0 3.2 0.00 0.15 0.00 97 1010.4
20260506014003 13 311 0.0 3.2 0.00 0.15 0.00 97 1010.3
20260506013603 13 326 0.0 3.2 0.00 0.15 0.00 97 1010.2
20260506013204 13 333 1.6 6.4 0.00 0.15 0.00 97 1010.3
20260506012804 13 323 0.0 6.4 0.00 0.15 0.00 97 1010.3
20260506012404 13 320 3.2 6.4 0.00 0.15 0.00 97 1010.4
20260506012004 13 316 1.6 3.2 0.00 0.15 0.00 97 1010.3
20260506011603 13 324 0.0 3.2 0.00 0.15 0.00 98 1010.5
20260506011203 13 335 1.6 3.2 0.00 0.15 0.00 98 1010.6
20260506010803 13 332 0.0 3.2 0.00 0.15 0.00 98 1010.4
20260506010404 13 337 1.6 6.4 0.00 0.15 0.00 98 1010.3
20260506010005 13 348 0.0 6.4 0.00 0.15 0.00 98 1010.2
20260506005604 13 354 1.6 3.2 0.00 0.15 0.00 98 1010.6
20260506005203 13 353 0.0 3.2 0.00 0.15 0.00 98 1010.5
20260506004804 13 337 0.0 3.2 0.00 0.15 0.00 98 1010.5
20260506004613 13 337 0.0 3.2 0.00 0.15 0.00 98 1010.5
20260506004004 13 7 0.0 3.2 0.00 0.15 0.00 98 1010.5
20260506003603 13 4 0.0 3.2 0.00 0.15 0.00 98 1010.8
20260506003204 13 328 0.0 3.2 0.00 0.15 0.00 98 1010.7
20260506002803 13 293 0.0 3.2 0.00 0.15 0.00 98 1010.6
20260506002403 13 272 0.0 3.2 0.00 0.15 0.00 98 1010.5
20260506002003 13 270 0.0 3.2 0.00 0.15 0.00 98 1010.7
20260506001604 13 304 0.0 3.2 0.00 0.15 0.00 98 1010.7
20260506001204 13 297 0.0 3.2 0.00 0.15 0.00 98 1010.7
20260506000804 13 292 0.0 3.2 0.00 0.15 0.00 98 1010.5
20260506000403 13 299 0.0 3.2 0.00 0.15 0.00 97 1010.6
20260506000004 13 305 0.0 3.2 0.00 0.15 0.00 97 1010.6
20260505235816 13 305 0.0 3.2 0.00 0.15 0.00 97 1010.9
20260505235415 13 270 0.0 3.2 0.00 0.15 0.00 97 1010.7
20260505235015 13 325 0.0 6.4 0.00 0.15 0.00 97 1010.5
20260505234404 13 352 0.0 6.4 0.00 0.15 0.00 97 1010.9
20260505234003 13 347 0.0 6.4 0.00 0.15 0.00 97 1010.7
20260505233813 13 346 3.2 6.4 0.00 0.15 0.00 97 1010.6
20260505233203 13 317 0.0 6.4 0.00 0.15 0.00 96 1010.5
20260505232804 13 318 0.0 6.4 0.00 0.15 0.00 96 1010.5
20260505232403 13 322 1.6 6.4 0.00 0.15 0.00 96 1010.7
20260505232003 13 330 3.2 6.4 0.00 0.15 0.00 96 1010.9
20260505231603 13 334 1.6 6.4 0.00 0.15 0.00 97 1010.8
20260505231204 13 338 0.0 6.4 0.00 0.15 0.00 97 1010.8
20260505230804 13 327 1.6 6.4 0.00 0.15 0.00 97 1010.7
20260505230404 13 321 3.2 6.4 0.00 0.15 0.00 97 1011.0
20260505230005 13 303 3.2 6.4 0.00 0.15 0.00 97 1010.9
20260505225603 13 297 3.2 6.4 0.00 0.15 0.00 97 1010.7
20260505225204 13 317 0.0 6.4 0.00 0.15 0.00 97 1011.0
20260505224803 13 7 3.2 6.4 0.00 0.15 0.00 97 1011.0
20260505224404 13 357 1.6 6.4 0.00 0.15 0.00 97 1011.2
20260505224003 13 342 1.6 6.4 0.00 0.15 0.00 97 1011.1
20260505223603 13 338 1.6 6.4 0.00 0.15 0.00 97 1011.1
20260505223413 13 344 1.6 6.4 0.00 0.15 0.00 97 1011.1
20260505222803 13 342 3.2 6.4 0.00 0.15 0.00 97 1011.1
20260505222403 13 337 1.6 6.4 0.00 0.15 0.00 97 1011.1
20260505222004 13 340 3.2 6.4 0.00 0.15 0.00 97 1011.4
20260505221603 13 343 3.2 6.4 0.00 0.15 0.00 97 1011.3
20260505221204 13 342 3.2 11.3 0.00 0.15 0.00 97 1011.6
20260505220804 13 341 1.6 11.3 0.00 0.15 0.00 97 1011.5
20260505220404 13 343 1.6 11.3 0.00 0.15 0.00 97 1011.5
20260505220008 13 336 4.8 6.4 0.00 0.15 0.00 97 1011.4
20260505215604 13 329 3.2 9.7 0.00 0.15 0.15 97 1011.5
20260505215204 13 335 1.6 9.7 0.00 0.15 0.15 97 1011.4
20260505214803 13 338 3.2 9.7 0.00 0.15 0.15 97 1011.4
20260505214405 13 341 3.2 6.4 0.00 0.15 0.15 96 1011.6
20260505214004 13 342 1.6 6.4 0.00 0.15 0.15 96 1011.4
20260505213604 13 329 3.2 6.4 0.00 0.15 0.15 96 1011.5
20260505213414 13 332 1.6 3.2 0.00 0.15 0.15 96 1011.5
20260505212804 13 339 1.6 6.4 0.00 0.15 0.15 96 1011.6
20260505212617 13 346 0.0 6.4 0.00 0.15 0.15 96 1011.8
20260505212003 13 346 3.2 6.4 0.00 0.15 0.15 96 1011.7
20260505211603 13 323 3.2 6.4 0.00 0.15 0.15 96 1011.8
20260505211203 14 321 0.0 6.4 0.00 0.15 0.15 96 1011.7
20260505210803 14 354 1.6 6.4 0.00 0.15 0.15 95 1011.8
20260505210403 14 7 1.6 6.4 0.00 0.15 0.15 95 1011.6
20260505210213 14 5 1.6 6.4 0.00 0.15 0.15 95 1011.8
20260505205604 14 331 1.6 6.4 0.00 0.15 0.15 95 1011.8
20260505205204 14 338 1.6 9.7 0.00 0.15 0.15 95 1011.6
20260505204804 14 324 3.2 9.7 0.00 0.15 0.15 95 1011.6
20260505204403 14 331 3.2 9.7 0.00 0.15 0.15 95 1011.8
20260505204004 14 313 1.6 6.4 0.00 0.15 0.15 95 1011.8
20260505203604 14 320 0.0 9.7 0.00 0.15 0.15 95 1011.6
20260505203414 14 312 3.2 9.7 0.00 0.15 0.15 95 1011.8
20260505202803 14 332 4.8 9.7 0.00 0.15 0.15 95 1011.7
20260505202404 14 343 1.6 9.7 0.00 0.15 0.15 95 1011.7
20260505202004 14 332 3.2 9.7 0.00 0.15 0.15 95 1011.7
20260505201604 14 327 1.6 9.7 0.00 0.15 0.15 95 1011.8
20260505201203 14 323 6.4 9.7 0.00 0.15 0.15 95 1012.1
20260505200803 14 330 1.6 9.7 0.00 0.15 0.15 95 1011.7
20260505200615 14 340 4.8 9.7 0.00 0.15 0.15 95 1011.7